Theta_e
310 310 309 309 310 314 322 323 324 323 321 320 318 317 317 317 315 310 305 301 298 297 296 296 295 295 294 294 293 293 292 292 292 292 291 291 291 291 291 291 291 291 291
310 309 309 310 311 315 321 323 323 321 320 316 316 315 311 308 303 299 297 297 297 296 295 295 294 294 293 293 292 292 291 291 291 291 291 291 291 291 291 291 290 290 290
311 312 313 315 319 323 323 322 322 321 314 313 310 306 302 299 297 297 297 297 296 295 295 294 293 293 292 291 291 291 291 290 290 290 290 290 290 291 291 290 290 290 290
312 313 315 317 319 321 322 322 321 313 310 306 302 299 298 297 297 297 296 295 294 294 293 293 292 291 291 291 290 290 290 290 290 290 290 290 290 289 288 289 291 289 289
313 314 315 317 319 320 320 319 311 307 303 300 298 297 297 297 297 296 295 294 293 293 292 291 291 291 290 290 290 290 290 290 290 290 288 288 287 288 287 287 286 288 288
314 314 315 316 317 317 313 308 304 301 299 298 297 297 297 297 296 295 294 293 292 291 291 290 290 290 290 289 289 289 289 289 289 288 287 287 287 286 285 285 285 285 284
312 312 311 311 309 307 305 302 299 298 297 297 297 297 297 296 294 293 293 292 291 290 290 290 289 289 289 288 288 288 288 288 289 288 288 288 287 285 284 285 284 284 284
308 308 307 306 305 302 300 299 297 297 297 296 296 296 296 294 293 292 291 290 290 290 289 289 289 289 288 288 287 287 287 287 288 288 288 287 285 285 284 284 283 284 284
307 306 305 303 301 299 298 297 296 296 296 296 296 295 294 293 291 291 290 290 289 289 289 288 288 288 287 287 287 286 286 286 287 287 286 285 285 284 283 283 282 282 282
306 305 303 301 299 298 297 296 296 295 295 295 295 293 292 291 290 290 289 289 289 289 288 288 288 287 287 287 286 286 286 285 285 286 285 286 286 286 283 282 282 282 282
305 302 300 298 297 296 296 296 295 294 294 294 292 291 291 290 289 289 289 288 288 288 288 287 287 287 286 286 286 285 285 284 284 285 287 286 285 285 284 283 282 282 283
304 301 299 297 296 295 295 295 294 293 293 292 291 290 290 289 289 288 288 288 287 287 287 287 287 286 286 286 285 285 284 284 284 284 285 285 285 285 285 284 284 284 284
302 300 298 296 296 295 295 293 294 293 292 291 290 289 289 289 288 288 287 287 287 287 287 286 286 286 286 285 285 284 284 284 284 284 284 284 284 284 284 284 284 284 284
302 299 297 296 295 295 294 295 292 292 291 291 289 289 289 288 288 287 287 287 287 287 287 286 286 286 286 285 284 284 283 283 283 283 283 284 284 284 284 284 284 284 284
300 298 297 296 296 298 294 292 292 291 291 289 288 288 288 287 287 287 287 287 287 287 287 286 286 286 285 285 284 284 283 283 283 282 282 283 283 283 283 283 283 283 283
300 298 296 296 295 293 292 292 292 292 291 289 288 288 287 287 287 287 287 287 287 286 286 286 285 285 285 284 284 284 283 282 282 281 281 281 281 282 282 282 282 282 282
298 297 296 295 294 293 292 292 293 292 289 288 288 287 287 287 287 286 286 287 286 286 286 285 285 284 284 283 283 283 282 282 281 280 280 280 280 280 281 281 281 281 281
297 296 295 295 294 293 292 292 291 290 289 288 288 287 287 286 286 286 286 286 286 285 285 284 284 283 283 283 282 282 281 281 280 279 279 279 279 279 279 279 279 279 280
296 295 295 294 293 292 291 290 290 289 288 287 287 287 286 286 286 286 286 285 285 284 284 283 283 282 282 282 281 280 280 280 279 278 278 278 278 278 278 278 278 278 278
295 294 294 293 292 291 290 290 290 289 288 287 287 286 286 286 285 285 285 284 284 283 283 282 282 282 281 281 280 279 279 278 277 277 277 277 277 277 276 276 276 276 277
294 294 294 292 292 291 290 290 290 289 288 288 287 286 285 285 285 284 283 283 283 282 282 281 281 281 280 279 279 278 278 277 276 276 276 276 276 276 275 275 275 275 275
293 293 293 292 292 291 290 290 289 288 289 289 288 286 284 284 284 283 283 282 282 281 281 280 280 279 279 279 278 277 277 276 275 275 275 275 274 274 274 274 274 274 274
293 292 292 291 291 290 289 289 288 288 288 289 286 285 283 283 283 282 282 281 280 280 280 280 279 279 278 277 276 276 276 275 274 274 274 274 273 273 273 273 273 273 273
292 292 291 291 291 290 289 288 288 287 286 285 284 283 282 281 281 281 280 279 279 279 278 278 278 278 277 276 275 275 274 274 274 274 273 273 273 273 272 272 272 272 272
290 290 290 289 289 288 287 287 286 285 284 283 282 281 280 280 279 279 278 278 277 277 277 277 277 276 275 275 275 274 274 274 274 273 273 273 272 272 272 271 271 271 271
289 288 288 287 286 285 285 284 283 282 281 280 281 279 278 278 277 277 277 277 277 278 276 275 275 274 274 274 273 272 272 272 271 271 271 272 272 272 271 270 270 270 270
Wind_Speed
29 29 28 29 29 28 26 26 26 24 22 22 22 18 17 15 13 10 7 6 6 6 7 9 11 13 15 17 19 21 23 26 31 39 39 41 42 42 42 41 40 39 39
22 21 20 22 25 26 28 28 25 22 20 18 16 15 13 12 10 8 6 5 5 7 8 11 13 16 18 20 22 24 26 27 31 38 39 39 40 40 41 41 40 40 40
19 19 19 20 24 28 29 28 24 20 20 18 16 15 14 11 9 6 4 5 7 9 11 13 15 18 20 22 23 24 25 26 28 32 37 37 38 39 42 42 43 44 44
22 21 21 23 25 27 27 25 22 21 20 19 18 16 13 9 6 5 5 7 9 10 12 15 17 18 19 19 20 21 23 25 27 30 33 36 38 39 40 45 50 46 47
24 24 25 26 27 27 25 25 25 24 22 20 17 14 10 8 6 5 7 8 10 12 14 15 15 16 16 17 19 21 23 26 28 30 32 35 38 40 41 43 45 48 47
25 26 27 28 28 27 27 26 25 24 22 19 16 12 10 6 6 7 9 10 11 12 13 13 13 12 14 16 19 20 22 24 26 27 29 33 35 35 39 39 41 43 44
28 29 29 29 29 29 28 27 25 23 20 18 15 11 8 7 7 9 11 11 12 11 10 9 10 13 16 18 21 23 24 25 25 24 29 30 33 32 35 36 38 40 39
32 32 31 30 30 29 28 26 25 22 18 16 12 10 8 7 9 10 11 11 10 9 8 9 12 15 18 22 24 25 25 26 27 27 27 27 26 31 29 29 33 35 36
34 33 32 31 31 30 28 26 23 20 18 15 12 9 9 10 10 11 11 10 8 7 9 11 14 16 19 21 24 26 27 27 27 25 24 24 27 24 24 26 30 31 36
36 34 32 31 30 28 27 25 22 20 17 14 11 11 11 11 12 12 11 9 8 9 11 15 19 21 22 23 24 26 29 30 30 30 30 28 25 25 21 20 25 27 28
36 34 33 31 29 27 26 24 22 19 16 14 14 13 13 13 12 11 10 10 10 11 13 17 19 21 23 23 24 26 28 30 30 30 30 28 25 24 23 21 22 22 25
36 35 34 32 31 29 27 24 22 19 17 16 16 15 14 13 13 12 11 11 11 12 15 17 19 20 23 24 24 24 27 28 30 30 28 27 26 25 24 22 24 20 18
38 36 34 33 31 29 27 24 21 21 19 18 18 17 15 15 14 13 13 12 13 15 17 18 20 22 22 23 25 26 25 26 27 29 29 29 26 25 24 23 19 18 16
38 37 36 34 33 30 26 26 25 22 21 20 21 19 18 17 16 15 14 14 16 18 19 20 23 25 26 26 26 26 26 24 25 27 29 29 28 26 24 21 21 17 15
37 36 36 35 31 31 32 28 25 23 20 23 21 21 20 19 18 18 17 18 20 20 22 23 24 25 26 26 26 26 27 26 25 25 26 27 28 28 26 22 20 18 16
38 39 38 37 36 33 31 29 26 22 25 24 23 23 22 21 21 21 21 23 22 22 24 25 25 26 26 26 27 28 28 27 26 25 25 26 27 29 28 25 21 20 19
36 37 37 37 35 34 32 30 25 28 25 25 26 25 24 25 25 24 24 26 24 25 25 26 27 27 26 25 26 27 29 28 27 25 25 25 26 26 26 25 21 20 20
36 36 36 35 34 33 31 29 27 26 26 26 26 26 26 26 26 26 28 26 26 26 26 26 26 26 25 26 26 27 27 27 27 26 25 25 25 25 24 23 21 21 20
34 34 35 35 33 31 30 29 28 28 29 28 27 27 27 27 28 30 30 28 28 26 26 25 26 26 25 25 25 26 27 27 27 27 25 25 24 24 22 21 21 19 19
33 35 35 35 34 34 33 31 31 30 29 29 29 29 29 30 30 30 30 29 28 26 26 26 25 25 25 25 25 26 26 25 24 24 23 24 23 22 22 21 20 20 20
32 35 37 37 36 35 34 34 32 31 29 30 31 31 32 33 31 31 29 28 28 27 27 26 25 25 25 25 26 25 25 24 23 24 23 23 22 22 21 21 21 21 21
32 34 37 38 37 37 37 36 34 32 31 32 33 35 34 36 33 30 29 28 28 27 26 26 25 24 25 25 25 25 23 22 22 23 23 23 22 21 22 22 21 21 20
32 35 37 38 38 38 38 37 37 37 37 36 35 37 35 33 33 32 30 28 29 27 26 26 26 25 24 25 25 25 24 22 22 23 23 22 22 22 22 22 22 22 21
29 34 37 39 40 41 41 41 40 41 40 38 37 37 33 32 32 32 30 29 28 26 26 27 28 27 25 24 24 25 25 24 23 24 24 24 23 23 24 23 23 23 23
29 32 35 39 41 42 42 43 42 42 41 39 37 35 33 33 33 31 29 29 27 27 27 27 27 26 27 26 24 25 25 25 25 25 24 25 26 25 25 25 24 24 24
30 31 33 36 39 41 42 42 41 40 39 37 36 34 33 32 31 29 27 27 28 29 29 28 26 26 27 27 26 27 27 26 26 25 26 27 27 25 24 24 24 24 23
Wind_Direction
238 236 232 227 222 218 212 214 219 218 231 233 236 218 219 225 224 222 222 237 258 280 302 312 317 321 324 324 325 325 324 321 319 321 327 329 330 332 333 333 333 333 333
220 216 210 208 205 201 198 202 209 225 226 215 201 202 199 198 198 206 222 251 286 303 308 316 322 325 327 329 329 329 330 331 328 326 329 331 334 334 333 333 335 337 335
207 200 197 198 194 188 192 200 211 220 196 189 188 188 190 192 197 214 245 282 298 311 318 320 328 331 332 334 336 335 332 332 331 329 330 333 334 336 335 335 336 336 338
203 198 196 195 195 195 198 201 204 195 189 184 184 189 190 195 209 237 276 299 306 313 324 328 330 332 333 333 334 333 334 333 334 332 333 334 337 337 335 335 333 336 335
199 196 195 194 193 195 196 195 190 188 184 186 189 188 191 200 226 268 288 300 315 323 325 327 328 329 333 336 337 339 338 335 336 336 335 334 336 335 337 335 332 332 333
196 193 192 191 191 189 188 188 188 188 188 188 188 191 199 219 261 286 299 308 314 315 317 322 328 333 337 336 337 337 336 336 337 335 333 332 332 334 333 332 330 326 326
194 191 188 188 188 187 188 189 191 191 190 191 192 199 217 247 273 289 297 301 303 303 308 318 327 329 332 333 333 335 337 337 334 329 328 331 329 330 328 326 318 319 320
196 194 192 191 190 190 191 193 194 192 193 197 202 216 239 265 278 282 285 288 290 298 307 318 324 327 331 330 330 333 334 334 333 329 325 325 323 320 322 312 316 323 326
200 197 197 196 196 196 196 196 195 197 200 206 215 232 252 260 269 273 276 280 284 293 314 321 325 328 328 329 329 330 332 332 329 327 324 318 317 318 318 318 327 328 328
204 201 200 201 201 201 200 199 200 202 207 215 229 241 248 256 264 269 270 267 279 297 311 322 329 333 334 335 334 334 334 333 330 328 323 321 324 325 326 320 323 320 322
206 204 203 203 202 202 203 202 204 207 214 226 235 239 246 255 261 262 262 272 288 305 317 325 328 329 332 337 338 335 331 329 322 318 319 325 328 329 329 325 325 319 316
206 205 205 206 204 203 205 206 208 212 222 231 235 240 246 253 256 259 265 273 290 303 314 318 322 324 328 332 334 332 330 324 322 318 314 316 323 325 325 324 325 316 312
206 207 207 207 206 206 207 208 216 221 226 232 241 242 246 249 253 257 264 279 293 302 310 315 320 324 327 329 329 332 330 325 318 313 311 310 313 317 319 316 318 313 310
209 208 208 208 207 207 210 223 219 224 230 240 239 241 245 249 253 259 269 283 292 302 312 317 320 325 327 329 329 329 326 325 318 312 308 305 302 306 310 311 308 311 303
211 211 210 209 210 223 218 217 223 226 238 241 242 244 247 250 256 263 273 282 290 301 307 312 317 318 320 323 324 324 324 324 320 313 305 302 299 299 304 303 296 295 295
213 212 213 214 214 212 215 220 224 233 242 242 245 247 249 253 259 266 272 279 289 296 302 306 309 310 314 317 320 322 323 322 320 315 308 303 300 299 300 298 291 287 287
221 220 218 217 216 218 220 223 233 238 241 244 247 252 256 258 263 268 273 280 287 291 297 300 302 306 310 312 314 317 320 320 317 313 308 305 302 300 300 297 291 285 283
222 222 222 220 221 223 226 230 234 240 246 251 254 257 261 265 268 270 274 280 282 288 292 297 298 300 303 306 311 314 316 317 314 311 308 305 304 302 301 297 293 288 282
226 224 223 224 227 230 232 234 238 242 246 250 255 260 265 268 269 271 275 276 280 284 289 291 293 297 301 306 310 313 314 314 312 311 311 306 304 301 299 296 292 288 285
231 230 230 230 231 232 234 238 242 245 249 254 258 261 262 264 266 270 272 275 279 284 286 288 291 295 299 303 307 309 310 310 309 307 306 304 303 299 298 297 294 292 286
241 238 236 236 237 239 241 245 248 250 254 258 261 261 260 262 264 267 270 274 277 278 282 286 291 295 299 303 306 307 307 307 307 306 305 303 300 298 295 294 293 291 289
248 246 245 245 246 247 248 248 250 252 255 260 261 259 258 261 265 268 268 270 273 276 279 282 287 291 295 298 299 300 301 303 303 302 302 300 298 296 294 293 292 290 289
253 251 251 251 252 253 254 254 254 254 253 257 258 258 257 261 265 267 268 269 270 273 276 282 287 290 292 296 296 297 298 299 299 299 299 298 297 295 293 292 291 290 288
259 257 256 257 257 258 258 258 258 257 258 259 258 259 260 262 263 265 265 266 268 271 275 281 286 290 291 291 291 293 293 296 296 296 294 295 295 293 291 290 290 289 288
264 261 259 259 259 259 260 260 259 258 259 260 260 262 261 260 261 263 264 264 266 270 276 278 282 285 288 289 290 289 289 292 293 292 291 291 290 289 288 288 289 287 285
276 271 266 264 264 265 264 264 263 263 263 261 263 261 260 260 261 261 261 263 267 273 276 278 281 284 285 287 288 288 288 289 289 290 291 290 287 286 285 286 286 285 285